Voltar ao catálogo

POSAT 1

AtivoCiênciaSSO
NORAD 22829·PAYLOAD·🇵🇹 Portugal

Lançado Sep 26, 1993 de Guiana Space Centre

Loading…

Próximas Passagens (próximas 24 horas)

TLE

AtualizadoSource: Space-Track

Época: Sep 14, 2026, 10:48 UTC

1 22829U 93061G   26257.45067649  .00000063  00000-0  40197-4 0  9999
2 22829  98.6575 324.3756 0010671 123.8402 236.3799 14.31937393720821

Acompanhe POSAT 1 em tempo real com AllMySat

Download on the App Store